Location: Biltmore Gardens
(41.6070°N, 83.4666°W)
Time: 14:29:40
(UTC+00:00)

CZ-2D R/B - Pass Details

Date: 14 July 2020
Orbit: 792 x 845 km, 98.7° (Epoch: 04 August)

Event Time Altitude Azimuth Distance (km) Brightness Sun altitude
Rises 07:25:06 0° 11° (N) 3,349 6.6 -22.3°
Reaches altitude 10° 07:27:26 10° 10° (N) 2,421 5.6 -22.1°
Maximum altitude 07:32:47 74° 286° (WNW) 863 2.1 -21.6°
Enters shadow 07:34:24 46° 214° (SW) 1,106 2.3 -21.5°
